Zurück zum Katalog

STARLINK-37672

AktivKommunikationVLEO
NORAD 100038·PAYLOAD·🇺🇸 United States

Gestartet Jul 14, 2026 von Cape Canaveral Space Force Station

Loading…

Nächste Überflüge (nächste 24 Stunden)

TLE

AlterndSource: Space-Track

Epoche: Sep 13, 2026, 17:54 UTC

1 A0038U 26161L   26256.74617428  .00021419  00000-0  64298-3 0  9996
2 A0038  53.1603  29.2734 0001045 113.5935 246.5178 15.34413739  9579

Verfolge STARLINK-37672 in Echtzeit mit AllMySat

Download on the App Store